Wind_Speed
16 15 13 6 3 5 1 8 11 10 8 14 11 8 12 8 4 8 25 23 30 16 15 15 17 18 19 20 20 20 17 14 14 14 13 12 12 12 12 12 11 10 11 10 9 9 8 8 8
15 13 5 5 4 2 6 14 10 7 14 14 11 13 9 8 8 15 22 31 27 19 19 18 19 20 19 19 19 18 15 14 14 13 11 12 12 11 12 11 10 10 10 10 9 8 7 6 6
14 16 4 4 4 6 4 12 12 12 11 11 14 7 5 7 17 24 28 38 27 20 20 20 20 19 19 19 18 16 14 14 13 12 12 11 11 11 11 9 9 8 9 8 8 8 7 6 5
12 7 6 2 15 10 8 11 11 10 9 9 14 13 10 15 16 24 39 34 22 18 21 21 20 19 18 18 16 15 14 14 12 11 11 11 10 11 9 9 9 9 9 8 7 8 7 6 5
7 7 11 9 7 9 10 11 12 13 8 10 14 12 12 13 22 37 39 27 25 22 22 21 21 19 18 16 15 14 14 12 12 11 10 10 8 8 9 9 9 8 8 8 8 8 7 6 5
5 5 4 6 8 10 11 6 9 12 12 10 14 17 10 18 38 33 32 27 25 25 25 21 20 19 17 16 14 14 13 12 11 10 10 8 7 7 7 7 8 7 7 8 8 8 8 6 5
15 11 16 2 6 13 11 6 7 9 10 10 18 12 14 24 33 31 29 26 26 27 26 23 20 18 16 15 14 13 12 11 10 9 8 8 7 7 8 7 6 6 6 7 8 7 7 6 5
12 13 14 4 9 15 10 9 8 11 14 14 18 9 20 29 32 30 27 25 25 29 25 23 21 18 16 14 13 12 11 10 9 8 7 8 9 10 9 8 6 7 6 6 5 5 5 6 7
10 12 5 15 19 21 10 13 10 12 13 8 4 21 28 34 31 28 26 23 18 26 25 24 22 19 17 15 13 11 10 9 8 6 7 6 7 4 8 6 6 7 5 5 4 3 4 4 5
14 1 9 4 19 7 10 14 10 12 12 12 14 28 32 34 32 27 25 25 22 24 26 25 23 20 17 16 13 11 9 8 8 8 4 2 4 3 6 4 5 5 4 4 2 2 2 5 4
17 12 25 7 8 4 16 17 7 13 12 14 19 25 28 34 29 27 26 25 26 26 26 25 23 20 17 16 12 12 10 11 8 4 5 3 3 4 3 7 5 5 4 4 2 2 4 2 3
17 11 16 5 6 6 11 18 12 4 16 17 20 25 27 27 26 30 29 30 27 26 25 25 22 20 17 13 13 12 11 9 10 9 6 2 2 2 2 4 8 4 3 4 2 4 3 2 4
19 18 9 10 5 5 4 11 12 11 8 18 20 24 26 23 26 31 31 31 27 26 25 24 22 19 17 13 14 12 11 10 8 7 8 5 3 2 1 1 1 7 1 1 2 0 1 8 3
13 17 13 14 11 11 10 10 9 16 13 19 20 23 24 24 25 27 27 28 28 27 26 24 23 20 18 17 11 12 12 11 9 8 8 7 6 2 1 3 4 5 4 4 1 3 4 7 2
20 13 17 12 15 10 12 14 17 19 17 20 21 21 22 23 28 26 27 27 27 26 26 24 23 22 20 18 15 14 13 11 11 9 8 7 6 5 6 4 1 1 1 1 1 1 1 2 2
18 20 16 20 19 16 14 18 20 19 19 20 21 20 21 24 26 28 28 28 28 27 26 25 25 24 22 20 17 16 14 13 12 10 9 9 8 6 6 6 0 4 2 1 6 2 3 4 3
18 18 23 21 22 15 17 7 13 21 19 19 20 20 20 22 25 29 29 29 29 27 26 26 24 24 23 20 18 16 15 14 13 11 11 11 10 9 8 6 2 2 1 0 3 3 4 8 7
23 24 22 22 19 19 17 18 27 19 20 20 20 20 21 22 24 30 30 30 29 29 27 26 25 22 23 21 19 17 17 16 15 13 13 10 10 10 9 7 5 1 3 3 3 2 3 3 4
22 22 25 22 16 20 19 18 20 20 18 17 21 20 22 22 22 30 30 30 29 29 29 28 26 25 23 23 21 20 20 18 17 16 15 13 12 11 10 9 8 4 4 5 2 4 4 2 2
27 24 22 22 15 13 19 20 18 16 20 17 18 21 21 22 23 26 32 32 32 31 31 28 27 25 26 24 22 21 19 19 18 16 17 17 14 13 11 10 8 8 7 4 4 4 3 3 2
27 27 21 18 20 19 15 19 18 20 15 19 17 22 21 23 24 25 28 33 34 33 32 32 30 28 28 25 22 19 17 18 18 18 18 18 15 14 13 12 9 4 5 10 6 6 5 6 4
27 26 23 19 19 17 22 16 20 18 20 18 19 21 23 24 25 25 26 33 35 35 34 32 32 31 30 29 24 25 23 20 22 19 19 19 17 16 15 12 10 8 9 4 4 6 5 4 6
24 21 23 22 18 17 19 19 18 25 23 23 21 20 23 25 26 26 27 35 37 36 36 34 32 32 31 31 31 26 25 23 18 19 19 20 18 19 18 16 14 11 11 10 6 5 7 6 6
22 20 21 22 18 19 25 20 18 16 25 27 23 22 21 24 25 26 33 35 35 36 35 34 32 32 33 31 33 28 26 26 23 21 20 19 19 20 21 19 17 14 14 11 10 10 9 10 6
20 20 13 16 18 17 25 23 19 18 19 19 19 23 21 22 24 25 26 26 33 35 35 34 35 34 34 33 32 34 28 28 23 21 22 19 20 20 23 26 20 19 17 15 14 13 11 11 10
27 25 16 22 19 18 24 27 24 25 13 14 22 20 22 23 23 25 25 28 33 35 37 36 37 36 35 36 35 33 32 30 30 26 23 23 20 19 15 25 19 21 18 18 16 15 14 14 13
23 27 26 23 23 15 20 24 26 23 27 20 15 21 24 24 24 25 27 31 35 35 37 39 36 38 37 38 36 36 35 35 32 31 30 24 21 20 17 18 18 21 21 20 19 18 17 15 16
28 24 23 18 22 20 16 16 17 21 18 25 25 17 22 24 24 24 25 29 34 38 40 41 42 39 44 42 40 39 38 38 36 31 30 29 28 23 16 21 20 22 23 23 21 20 19 18 18
25 22 27 21 18 15 12 9 18 19 22 22 21 26 21 22 24 24 23 32 36 36 37 39 40 41 38 40 41 39 39 38 36 36 34 33 29 26 28 20 24 24 25 25 24 23 19 23 21
27 29 28 17 24 18 12 2 11 10 8 17 21 20 24 20 22 22 24 23 31 35 37 38 40 41 41 41 39 40 39 38 38 37 36 34 35 32 29 31 27 28 28 28 27 26 25 23 23
Wind_Direction
164 167 183 176 254 239 118 90 97 98 78 99 114 105 104 46 46 125 149 152 158 154 146 142 142 137 137 139 139 138 130 127 117 107 100 96 91 82 80 83 88 85 87 93 100 97 95 99 99
167 174 201 260 248 222 106 76 68 104 100 107 110 108 79 83 85 128 145 167 162 154 149 150 144 139 139 137 138 131 128 123 112 109 104 98 91 85 84 80 82 89 86 90 93 96 95 100 94
178 201 237 242 261 107 82 141 124 96 119 125 104 110 53 88 119 143 151 156 166 156 149 154 146 140 138 138 136 131 128 120 117 114 105 95 91 89 83 76 78 85 87 89 94 95 95 95 95
184 224 245 190 281 88 103 102 99 115 116 102 116 85 83 125 134 147 150 158 156 160 152 158 149 143 139 137 135 132 128 121 118 114 106 100 93 96 79 82 83 81 82 84 86 89 89 85 78
236 254 250 221 162 63 77 89 117 141 132 131 107 99 103 111 143 144 151 154 156 153 153 152 150 146 142 140 138 134 128 126 119 112 108 104 103 100 80 82 83 79 83 84 84 89 89 80 73
253 236 90 251 84 97 84 121 112 89 108 103 97 117 116 133 138 144 152 154 155 156 153 152 150 148 144 141 139 136 135 128 121 117 115 115 110 103 95 85 83 85 84 86 87 90 92 83 75
255 305 285 297 110 89 92 146 105 104 121 125 133 124 130 148 150 153 153 155 161 155 150 154 152 150 146 143 143 139 137 135 127 126 125 123 117 103 93 91 93 87 84 86 88 87 87 85 77
260 269 297 311 90 103 119 93 90 131 82 126 130 136 152 148 159 155 156 161 168 153 154 156 156 156 153 151 146 141 145 142 139 138 138 129 115 104 86 87 92 106 109 103 94 92 98 99 87
246 271 127 256 40 116 139 104 82 84 128 129 78 135 142 149 161 157 155 160 181 160 160 163 162 162 161 157 154 149 154 152 150 150 156 160 187 119 114 127 112 115 121 112 105 105 138 148 105
235 330 274 291 167 95 127 121 115 133 138 131 116 120 142 155 164 161 160 161 180 171 168 168 169 165 166 164 159 163 166 163 176 180 200 151 135 110 110 130 121 120 119 132 128 152 264 174 180
233 245 230 111 27 216 140 122 147 117 157 150 134 144 155 155 164 163 167 165 185 169 175 172 173 168 174 159 165 173 173 175 177 179 208 123 146 218 203 168 139 157 119 161 69 231 3 276 133
238 258 259 94 122 266 152 132 139 201 132 148 142 156 161 166 166 171 174 171 187 173 183 173 174 170 182 169 181 178 176 182 185 184 198 171 224 173 126 149 172 155 136 79 26 33 7 48 73
226 260 218 249 232 239 268 141 144 144 139 143 146 161 169 175 174 175 176 175 179 180 185 178 179 177 187 187 188 193 186 190 191 169 193 221 245 164 64 291 82 145 78 351 72 42 355 122 101
218 231 252 235 210 184 225 170 203 150 154 146 159 170 175 181 180 178 183 176 180 183 186 185 184 185 190 194 199 200 194 185 203 195 191 208 229 207 332 260 328 139 128 66 41 77 210 152 22
230 251 228 226 236 216 221 189 188 152 165 159 166 174 179 185 183 184 185 181 185 185 185 190 191 190 193 197 199 199 196 203 201 209 200 208 215 218 248 266 222 157 79 144 146 172 16 38 288
220 229 220 213 217 213 206 209 176 157 170 171 171 176 180 186 187 188 189 185 184 187 188 193 194 191 194 198 199 204 207 205 209 208 205 203 211 229 241 251 221 97 26 281 167 234 209 176 152
214 221 223 221 204 204 207 171 306 168 178 177 179 178 182 185 192 190 190 190 186 191 190 194 196 195 194 198 202 206 207 212 212 213 213 192 210 219 237 252 322 105 153 75 137 249 278 179 202
214 216 217 222 193 207 198 241 182 168 179 185 182 182 186 187 191 188 191 191 191 191 192 195 197 201 192 198 203 206 210 212 216 215 214 196 215 223 228 245 213 301 224 77 110 25 333 15 9
235 212 230 202 185 199 222 221 187 170 186 199 175 187 190 190 187 187 193 190 193 193 194 196 199 197 195 200 202 207 209 209 214 217 215 214 220 225 225 247 232 231 217 115 174 197 157 193 77
234 242 215 231 200 202 209 222 205 244 184 197 191 185 194 187 183 190 191 193 195 195 194 194 199 197 199 203 208 210 213 214 215 217 212 216 222 227 218 228 236 230 152 158 190 248 260 160 192
225 232 232 221 218 215 226 228 223 225 208 185 209 182 195 191 187 188 190 198 195 195 193 195 196 199 200 208 206 212 219 226 213 219 215 216 221 220 210 207 230 190 228 184 168 189 263 274 159
220 222 236 237 232 211 205 233 212 218 201 197 199 192 188 196 191 186 191 195 198 197 196 196 194 199 201 205 208 208 209 213 219 214 215 214 207 216 212 215 213 220 227 200 174 211 242 244 163
227 213 222 237 242 249 233 220 238 198 211 198 205 200 190 192 192 190 190 193 198 198 197 198 195 198 202 201 210 207 215 218 215 218 214 211 205 207 217 214 206 212 222 235 230 171 226 213 267
214 229 221 220 234 238 231 240 221 225 204 208 189 205 197 189 192 195 189 189 196 197 198 197 194 199 201 202 206 214 210 221 213 208 213 215 217 212 217 219 215 209 220 230 205 214 218 227 219
207 207 206 217 216 226 226 232 234 230 220 203 209 196 196 191 192 192 188 188 189 195 197 197 193 198 200 203 206 212 215 212 224 214 212 216 220 216 211 207 214 216 216 219 215 204 217 214 217
206 209 214 210 216 222 228 230 226 236 246 230 197 207 194 188 195 192 193 189 188 191 194 197 194 196 199 203 206 208 211 213 216 217 217 216 227 219 215 190 206 217 211 211 214 218 215 211 214
195 215 217 239 215 234 215 218 238 229 223 219 241 201 196 185 194 191 191 196 191 190 193 196 198 197 198 204 206 208 208 210 214 217 219 226 220 230 209 203 206 208 212 210 214 218 210 213 211
226 205 216 229 248 224 233 242 208 209 223 213 207 211 217 180 188 196 194 194 197 193 195 196 199 199 200 201 205 207 208 210 213 214 216 217 224 224 232 198 207 210 210 213 212 217 219 209 214
206 211 213 228 231 241 241 240 222 202 202 216 217 210 213 207 185 194 196 195 197 199 196 199 200 203 201 204 207 208 209 210 211 215 214 215 216 218 219 210 203 209 212 213 212 219 222 204 214
208 217 200 221 215 237 262 117 32 159 208 190 215 210 209 202 190 192 191 198 196 199 202 201 204 205 207 206 208 209 209 209 210 213 215 214 214 213 211 211 207 208 212 213 213 214 220 212 212
Height
776 778 779 781 791 765 760 742 722 740 746 737 746 749 768 768 774 801 798 801 807 811 813 816 817 819 820 821 823 826 828 831 832 833 834 835 836 837 837 837 837 838 838 838 839 839 839 840 841
776 776 777 773 787 782 750 736 747 745 735 738 740 745 758 780 781 790 798 802 809 811 814 818 819 820 822 824 827 829 832 833 835 836 837 838 838 839 839 839 839 839 840 840 841 841 841 842 842
774 772 773 767 768 773 753 738 736 733 731 741 747 754 756 777 786 791 794 803 808 812 815 819 821 823 825 827 829 832 834 835 837 838 839 840 840 841 841 841 841 841 842 842 842 843 843 843 843
773 767 763 782 781 726 732 727 727 736 736 736 744 764 764 773 785 789 797 804 809 814 816 819 822 825 827 829 832 834 835 837 838 840 841 841 842 842 843 843 842 842 843 843 844 844 844 844 844
768 755 754 749 734 723 715 715 726 741 736 738 748 767 777 781 785 791 800 804 809 813 817 821 824 827 830 831 834 836 837 838 840 841 842 843 844 844 845 844 845 845 845 845 845 845 845 845 845
767 743 780 780 729 717 715 716 717 725 732 743 758 771 780 785 788 795 800 805 809 813 817 823 825 829 831 833 835 837 839 840 841 842 843 844 844 845 845 846 846 846 847 847 846 846 846 846 846
760 742 751 725 727 728 724 712 719 730 738 743 751 773 779 786 792 796 801 805 809 812 816 823 827 831 833 835 838 839 840 842 843 844 844 845 845 845 846 846 847 848 848 848 848 848 848 847 847
739 735 743 718 730 735 721 716 721 728 740 738 744 769 781 784 792 796 801 806 807 811 818 823 828 832 834 837 839 840 841 843 844 845 845 845 845 846 847 847 848 849 849 849 849 850 849 848 847
732 748 768 739 746 724 714 728 722 725 741 743 743 753 769 785 792 796 801 807 808 810 816 822 827 831 833 836 839 841 842 844 845 846 845 844 845 847 847 849 849 850 850 850 850 849 849 849 849
738 752 772 705 721 721 713 720 729 735 744 749 746 755 774 784 791 795 800 805 808 808 814 819 824 829 832 834 839 842 843 845 846 846 845 840 846 847 849 849 849 850 850 850 850 849 850 850 848
727 746 753 709 704 703 709 718 722 736 747 745 755 761 771 779 788 796 800 805 807 807 812 817 822 828 831 833 838 839 841 842 844 846 846 846 847 847 847 848 849 850 850 850 850 850 848 849 848
735 717 717 709 707 705 711 709 725 728 731 735 746 758 766 772 781 790 796 802 803 807 811 815 822 827 831 833 836 837 839 841 842 844 847 847 847 847 848 847 849 849 849 850 850 850 850 849 848
727 720 711 707 709 708 704 715 718 729 726 733 745 757 765 770 775 781 787 794 800 806 811 815 822 827 831 833 835 835 838 841 841 843 846 846 846 847 847 848 847 849 850 850 849 851 850 850 849
711 717 712 708 708 709 716 713 718 720 726 734 746 755 761 767 772 777 782 789 796 804 809 814 821 826 831 834 835 837 838 839 841 842 844 847 847 847 847 848 848 848 850 850 850 851 851 849 849
707 725 718 712 709 711 708 723 725 710 724 734 744 751 757 763 769 774 780 787 795 802 807 812 818 824 829 832 835 837 838 838 840 842 844 846 847 848 848 846 847 848 849 850 851 851 850 850 849
725 721 734 713 709 705 712 733 709 706 723 733 740 746 753 759 765 772 778 784 793 799 805 811 815 820 826 830 833 835 836 837 838 840 842 844 846 847 847 847 850 848 849 849 850 850 850 851 851
722 736 730 716 697 702 712 732 746 703 718 728 736 742 748 755 761 768 775 782 788 796 802 808 812 816 822 827 830 833 834 836 837 838 839 841 844 846 847 847 846 848 848 848 849 849 848 847 847
730 729 713 718 697 700 711 711 715 701 710 719 729 736 743 749 754 763 770 778 785 792 799 805 810 814 818 823 827 830 832 835 836 837 838 839 842 844 845 844 846 847 848 846 849 850 849 846 847
703 707 711 694 686 705 708 711 712 697 705 711 717 729 736 741 749 758 767 774 781 788 794 800 806 810 815 819 822 825 827 831 833 834 836 838 840 841 844 844 845 845 845 846 848 849 848 846 848
708 705 703 692 683 695 703 708 699 698 696 704 708 721 728 735 742 752 761 767 774 781 788 795 801 806 811 815 818 821 823 826 829 831 833 836 837 839 841 842 842 843 844 845 847 847 845 845 847
709 708 702 702 691 686 703 712 704 691 687 692 699 705 717 724 733 743 753 760 767 774 781 789 796 801 806 810 815 818 821 823 825 827 829 832 834 836 839 839 840 842 843 843 846 847 847 845 847
711 693 696 699 703 722 701 735 706 694 694 695 695 696 706 714 722 732 742 752 759 766 775 782 789 795 800 805 808 812 815 816 820 822 824 826 830 834 836 838 839 841 842 841 843 845 846 846 845
699 685 700 701 707 706 706 719 695 682 697 691 689 687 691 702 711 720 730 741 750 759 767 776 783 789 794 798 802 806 811 812 814 817 820 823 825 829 832 834 836 838 840 840 842 843 845 846 845
682 695 695 701 709 727 706 704 696 682 680 676 674 679 682 689 700 709 720 732 743 752 760 768 776 782 788 793 797 800 803 808 809 812 815 818 821 823 827 830 832 835 837 838 840 842 844 845 845
686 701 725 732 722 723 693 703 691 665 658 662 669 670 672 680 690 701 710 721 732 742 752 759 767 774 780 786 790 795 799 803 805 807 810 811 814 816 818 823 828 831 833 835 838 839 841 843 844
684 687 703 731 719 709 686 697 680 656 648 645 650 655 662 672 680 690 701 710 721 731 740 749 756 764 772 778 782 787 793 797 801 803 803 807 808 810 813 817 822 827 830 832 834 837 838 840 841
674 682 665 680 667 682 671 667 655 645 651 652 656 652 655 662 672 681 691 701 710 721 729 738 746 754 762 768 775 779 784 788 791 795 799 802 804 805 809 813 818 821 824 827 830 833 834 836 837
649 656 692 676 701 701 673 667 669 658 655 646 653 654 651 651 663 671 679 691 701 710 718 727 736 743 747 756 763 769 773 778 784 788 792 795 799 802 804 807 813 816 819 822 825 827 829 831 832
656 659 664 663 667 686 691 670 625 634 641 648 643 645 646 645 653 662 671 679 690 700 710 719 727 733 742 748 753 758 763 769 775 780 784 788 792 796 799 802 806 810 813 816 819 821 823 824 827
635 648 653 672 682 665 657 659 616 614 624 630 639 636 636 638 642 652 661 672 681 692 700 707 716 724 730 737 744 748 753 760 764 769 775 780 783 787 790 795 799 802 806 809 812 814 816 818 820